Powrót do katalogu

YAOGAN 25C DEB

AktywnyLEO
NORAD 69731·DEBRIS·🇷🇺 Russia

Wystrzelony Dec 10, 2014 z Jiuquan Satellite Launch Center

Loading…

Następne Przeloty (najbliższe 24 godziny)

TLE

ŚwieżeSource: Space-Track

Epoka: Sep 14, 2026, 11:27 UTC

1 69731U 14080L   26257.47729298  .00005082  00000-0  43919-2 0  9992
2 69731  63.3640  59.9820 0321783  22.8040 338.6926 13.66132208 43010

Śledź YAOGAN 25C DEB w czasie rzeczywistym z AllMySat

Download on the App Store